Nova Scotia Power in-province load,,,,,
,,,,,
HOUR,Date/time, Load [MW] ,,,
,,,,,
1,2013-01-01 01:00," 1,453.6 ",,,
2,2013-01-01 02:00," 1,399.9 ",,,
3,2013-01-01 03:00," 1,342.1 ",,,
4,2013-01-01 04:00," 1,323.6 ",,,
5,2013-01-01 05:00," 1,308.1 ",,,
6,2013-01-01 06:00," 1,321.9 ",,,
7,2013-01-01 07:00," 1,335.9 ",,,
8,2013-01-01 08:00," 1,360.7 ",,,
9,2013-01-01 09:00," 1,390.2 ",,,
10,2013-01-01 10:00," 1,453.1 ",,,
11,2013-01-01 11:00," 1,477.8 ",,,
12,2013-01-01 12:00," 1,484.9 ",,,
13,2013-01-01 13:00," 1,499.6 ",,,
14,2013-01-01 14:00," 1,493.6 ",,,
15,2013-01-01 15:00," 1,485.9 ",,,
16,2013-01-01 16:00," 1,508.2 ",,,
17,2013-01-01 17:00," 1,595.4 ",,,
18,2013-01-01 18:00," 1,702.6 ",,,
19,2013-01-01 19:00," 1,720.3 ",,,
20,2013-01-01 20:00," 1,716.5 ",,,
21,2013-01-01 21:00," 1,692.3 ",,,
22,2013-01-01 22:00," 1,590.0 ",,,
23,2013-01-01 23:00," 1,531.6 ",,,
24,2013-01-02 00:00," 1,499.5 ",,,
25,2013-01-02 01:00," 1,405.1 ",,,
26,2013-01-02 02:00," 1,385.3 ",,,
27,2013-01-02 03:00," 1,389.1 ",,,
28,2013-01-02 04:00," 1,417.6 ",,,
29,2013-01-02 05:00," 1,426.8 ",,,
30,2013-01-02 06:00," 1,501.7 ",,,
31,2013-01-02 07:00," 1,622.1 ",,,
32,2013-01-02 08:00," 1,673.1 ",,,
33,2013-01-02 09:00," 1,734.9 ",,,
34,2013-01-02 10:00," 1,754.8 ",,,
35,2013-01-02 11:00," 1,754.0 ",,,
36,2013-01-02 12:00," 1,745.9 ",,,
37,2013-01-02 13:00," 1,765.6 ",,,
38,2013-01-02 14:00," 1,745.6 ",,,
39,2013-01-02 15:00," 1,722.3 ",,,
40,2013-01-02 16:00," 1,748.5 ",,,
41,2013-01-02 17:00," 1,831.6 ",,,
42,2013-01-02 18:00," 1,957.6 ",,,
43,2013-01-02 19:00," 1,922.9 ",,,
44,2013-01-02 20:00," 1,869.9 ",,,
45,2013-01-02 21:00," 1,830.7 ",,,
46,2013-01-02 22:00," 1,748.9 ",,,
47,2013-01-02 23:00," 1,627.1 ",,,
48,2013-01-03 00:00," 1,554.2 ",,,
49,2013-01-03 01:00," 1,509.0 ",,,
50,2013-01-03 02:00," 1,470.1 ",,,
51,2013-01-03 03:00," 1,442.0 ",,,
52,2013-01-03 04:00," 1,427.7 ",,,
53,2013-01-03 05:00," 1,441.8 ",,,
54,2013-01-03 06:00," 1,548.9 ",,,
55,2013-01-03 07:00," 1,636.6 ",,,
56,2013-01-03 08:00," 1,748.0 ",,,
57,2013-01-03 09:00," 1,770.3 ",,,
58,2013-01-03 10:00," 1,760.0 ",,,
59,2013-01-03 11:00," 1,734.8 ",,,
60,2013-01-03 12:00," 1,702.0 ",,,
61,2013-01-03 13:00," 1,687.6 ",,,
62,2013-01-03 14:00," 1,643.9 ",,,
63,2013-01-03 15:00," 1,612.3 ",,,
64,2013-01-03 16:00," 1,643.7 ",,,
65,2013-01-03 17:00," 1,726.2 ",,,
66,2013-01-03 18:00," 1,862.2 ",,,
67,2013-01-03 19:00," 1,817.8 ",,,
68,2013-01-03 20:00," 1,791.7 ",,,
69,2013-01-03 21:00," 1,744.5 ",,,
70,2013-01-03 22:00," 1,670.4 ",,,
71,2013-01-03 23:00," 1,567.8 ",,,
72,2013-01-04 00:00," 1,558.3 ",,,
73,2013-01-04 01:00," 1,531.9 ",,,
74,2013-01-04 02:00," 1,497.6 ",,,
75,2013-01-04 03:00," 1,474.8 ",,,
76,2013-01-04 04:00," 1,469.3 ",,,
77,2013-01-04 05:00," 1,477.5 ",,,
78,2013-01-04 06:00," 1,505.1 ",,,
79,2013-01-04 07:00," 1,601.3 ",,,
80,2013-01-04 08:00," 1,721.4 ",,,
81,2013-01-04 09:00," 1,742.4 ",,,
82,2013-01-04 10:00," 1,700.7 ",,,
83,2013-01-04 11:00," 1,664.9 ",,,
84,2013-01-04 12:00," 1,650.3 ",,,
85,2013-01-04 13:00," 1,639.9 ",,,
86,2013-01-04 14:00," 1,585.7 ",,,
87,2013-01-04 15:00," 1,585.6 ",,,
88,2013-01-04 16:00," 1,593.3 ",,,
89,2013-01-04 17:00," 1,645.2 ",,,
90,2013-01-04 18:00," 1,727.5 ",,,
91,2013-01-04 19:00," 1,684.1 ",,,
92,2013-01-04 20:00," 1,632.8 ",,,
93,2013-01-04 21:00," 1,577.2 ",,,
94,2013-01-04 22:00," 1,502.6 ",,,
95,2013-01-04 23:00," 1,417.3 ",,,
96,2013-01-05 00:00," 1,361.1 ",,,
97,2013-01-05 01:00," 1,319.0 ",,,
98,2013-01-05 02:00," 1,346.2 ",,,
99,2013-01-05 03:00," 1,318.3 ",,,
100,2013-01-05 04:00," 1,292.7 ",,,
101,2013-01-05 05:00," 1,263.2 ",,,
102,2013-01-05 06:00," 1,287.4 ",,,
103,2013-01-05 07:00," 1,344.1 ",,,
104,2013-01-05 08:00," 1,419.9 ",,,
105,2013-01-05 09:00," 1,448.2 ",,,
106,2013-01-05 10:00," 1,484.9 ",,,
107,2013-01-05 11:00," 1,492.3 ",,,
108,2013-01-05 12:00," 1,510.6 ",,,
109,2013-01-05 13:00," 1,524.5 ",,,
110,2013-01-05 14:00," 1,525.2 ",,,
111,2013-01-05 15:00," 1,506.3 ",,,
112,2013-01-05 16:00," 1,533.3 ",,,
113,2013-01-05 17:00," 1,630.4 ",,,
114,2013-01-05 18:00," 1,763.7 ",,,
115,2013-01-05 19:00," 1,743.5 ",,,
116,2013-01-05 20:00," 1,713.4 ",,,
117,2013-01-05 21:00," 1,683.8 ",,,
118,2013-01-05 22:00," 1,666.8 ",,,
119,2013-01-05 23:00," 1,596.9 ",,,
120,2013-01-06 00:00," 1,526.8 ",,,
121,2013-01-06 01:00," 1,474.4 ",,,
122,2013-01-06 02:00," 1,466.7 ",,,
123,2013-01-06 03:00," 1,499.2 ",,,
124,2013-01-06 04:00," 1,512.8 ",,,
125,2013-01-06 05:00," 1,530.0 ",,,
126,2013-01-06 06:00," 1,493.5 ",,,
127,2013-01-06 07:00," 1,511.6 ",,,
128,2013-01-06 08:00," 1,528.9 ",,,
129,2013-01-06 09:00," 1,594.9 ",,,
130,2013-01-06 10:00," 1,685.4 ",,,
131,2013-01-06 11:00," 1,706.4 ",,,
132,2013-01-06 12:00," 1,722.1 ",,,
133,2013-01-06 13:00," 1,710.9 ",,,
134,2013-01-06 14:00," 1,711.9 ",,,
135,2013-01-06 15:00," 1,696.0 ",,,
136,2013-01-06 16:00," 1,699.0 ",,,
137,2013-01-06 17:00," 1,717.9 ",,,
138,2013-01-06 18:00," 1,797.0 ",,,
139,2013-01-06 19:00," 1,742.5 ",,,
140,2013-01-06 20:00," 1,689.3 ",,,
141,2013-01-06 21:00," 1,638.4 ",,,
142,2013-01-06 22:00," 1,566.3 ",,,
143,2013-01-06 23:00," 1,485.2 ",,,
144,2013-01-07 00:00," 1,455.0 ",,,
145,2013-01-07 01:00," 1,413.8 ",,,
146,2013-01-07 02:00," 1,392.9 ",,,
147,2013-01-07 03:00," 1,384.3 ",,,
148,2013-01-07 04:00," 1,393.0 ",,,
149,2013-01-07 05:00," 1,419.2 ",,,
150,2013-01-07 06:00," 1,501.6 ",,,
151,2013-01-07 07:00," 1,648.5 ",,,
152,2013-01-07 08:00," 1,749.1 ",,,
153,2013-01-07 09:00," 1,750.0 ",,,
154,2013-01-07 10:00," 1,736.7 ",,,
155,2013-01-07 11:00," 1,657.9 ",,,
156,2013-01-07 12:00," 1,647.4 ",,,
157,2013-01-07 13:00," 1,713.9 ",,,
158,2013-01-07 14:00," 1,679.8 ",,,
159,2013-01-07 15:00," 1,669.4 ",,,
160,2013-01-07 16:00," 1,693.7 ",,,
161,2013-01-07 17:00," 1,789.1 ",,,
162,2013-01-07 18:00," 1,887.9 ",,,
163,2013-01-07 19:00," 1,884.5 ",,,
164,2013-01-07 20:00," 1,853.2 ",,,
165,2013-01-07 21:00," 1,833.3 ",,,
166,2013-01-07 22:00," 1,759.5 ",,,
167,2013-01-07 23:00," 1,706.2 ",,,
168,2013-01-08 00:00," 1,655.7 ",,,
169,2013-01-08 01:00," 1,665.8 ",,,
170,2013-01-08 02:00," 1,670.9 ",,,
171,2013-01-08 03:00," 1,644.4 ",,,
172,2013-01-08 04:00," 1,587.6 ",,,
173,2013-01-08 05:00," 1,669.9 ",,,
174,2013-01-08 06:00," 1,651.4 ",,,
175,2013-01-08 07:00," 1,738.1 ",,,
176,2013-01-08 08:00," 1,856.2 ",,,
177,2013-01-08 09:00," 1,857.7 ",,,
178,2013-01-08 10:00," 1,820.6 ",,,
179,2013-01-08 11:00," 1,780.9 ",,,
180,2013-01-08 12:00," 1,755.4 ",,,
181,2013-01-08 13:00," 1,764.4 ",,,
182,2013-01-08 14:00," 1,750.9 ",,,
183,2013-01-08 15:00," 1,709.9 ",,,
184,2013-01-08 16:00," 1,704.8 ",,,
185,2013-01-08 17:00," 1,741.1 ",,,
186,2013-01-08 18:00," 1,859.7 ",,,
187,2013-01-08 19:00," 1,826.7 ",,,
188,2013-01-08 20:00," 1,772.2 ",,,
189,2013-01-08 21:00," 1,718.4 ",,,
190,2013-01-08 22:00," 1,640.2 ",,,
191,2013-01-08 23:00," 1,526.7 ",,,
192,2013-01-09 00:00," 1,461.2 ",,,
193,2013-01-09 01:00," 1,428.0 ",,,
194,2013-01-09 02:00," 1,394.9 ",,,
195,2013-01-09 03:00," 1,372.6 ",,,
196,2013-01-09 04:00," 1,362.1 ",,,
197,2013-01-09 05:00," 1,376.0 ",,,
198,2013-01-09 06:00," 1,443.2 ",,,
199,2013-01-09 07:00," 1,563.9 ",,,
200,2013-01-09 08:00," 1,627.7 ",,,
201,2013-01-09 09:00," 1,636.8 ",,,
202,2013-01-09 10:00," 1,586.1 ",,,
203,2013-01-09 11:00," 1,561.9 ",,,
204,2013-01-09 12:00," 1,527.1 ",,,
205,2013-01-09 13:00," 1,514.7 ",,,
206,2013-01-09 14:00," 1,480.5 ",,,
207,2013-01-09 15:00," 1,431.1 ",,,
208,2013-01-09 16:00," 1,464.2 ",,,
209,2013-01-09 17:00," 1,578.7 ",,,
210,2013-01-09 18:00," 1,694.6 ",,,
211,2013-01-09 19:00," 1,682.4 ",,,
212,2013-01-09 20:00," 1,675.9 ",,,
213,2013-01-09 21:00," 1,626.5 ",,,
214,2013-01-09 22:00," 1,547.1 ",,,
215,2013-01-09 23:00," 1,434.3 ",,,
216,2013-01-10 00:00," 1,368.5 ",,,
217,2013-01-10 01:00," 1,340.1 ",,,
218,2013-01-10 02:00," 1,302.2 ",,,
219,2013-01-10 03:00," 1,267.9 ",,,
220,2013-01-10 04:00," 1,254.6 ",,,
221,2013-01-10 05:00," 1,262.8 ",,,
222,2013-01-10 06:00," 1,319.4 ",,,
223,2013-01-10 07:00," 1,464.3 ",,,
224,2013-01-10 08:00," 1,600.1 ",,,
225,2013-01-10 09:00," 1,628.3 ",,,
226,2013-01-10 10:00," 1,622.7 ",,,
227,2013-01-10 11:00," 1,633.0 ",,,
228,2013-01-10 12:00," 1,645.1 ",,,
229,2013-01-10 13:00," 1,652.7 ",,,
230,2013-01-10 14:00," 1,637.9 ",,,
231,2013-01-10 15:00," 1,621.0 ",,,
232,2013-01-10 16:00," 1,654.2 ",,,
233,2013-01-10 17:00," 1,730.7 ",,,
234,2013-01-10 18:00," 1,800.8 ",,,
235,2013-01-10 19:00," 1,766.9 ",,,
236,2013-01-10 20:00," 1,742.9 ",,,
237,2013-01-10 21:00," 1,638.1 ",,,
238,2013-01-10 22:00," 1,551.3 ",,,
239,2013-01-10 23:00," 1,450.5 ",,,
240,2013-01-11 00:00," 1,390.1 ",,,
241,2013-01-11 01:00," 1,351.3 ",,,
242,2013-01-11 02:00," 1,314.8 ",,,
243,2013-01-11 03:00," 1,286.0 ",,,
244,2013-01-11 04:00," 1,282.5 ",,,
245,2013-01-11 05:00," 1,298.7 ",,,
246,2013-01-11 06:00," 1,363.2 ",,,
247,2013-01-11 07:00," 1,514.2 ",,,
248,2013-01-11 08:00," 1,646.9 ",,,
249,2013-01-11 09:00," 1,669.5 ",,,
250,2013-01-11 10:00," 1,652.3 ",,,
251,2013-01-11 11:00," 1,633.1 ",,,
252,2013-01-11 12:00," 1,620.0 ",,,
253,2013-01-11 13:00," 1,610.0 ",,,
254,2013-01-11 14:00," 1,570.6 ",,,
255,2013-01-11 15:00," 1,544.0 ",,,
256,2013-01-11 16:00," 1,560.3 ",,,
257,2013-01-11 17:00," 1,617.7 ",,,
258,2013-01-11 18:00," 1,735.4 ",,,
259,2013-01-11 19:00," 1,729.6 ",,,
260,2013-01-11 20:00," 1,696.4 ",,,
261,2013-01-11 21:00," 1,649.0 ",,,
262,2013-01-11 22:00," 1,578.0 ",,,
263,2013-01-11 23:00," 1,497.1 ",,,
264,2013-01-12 00:00," 1,458.8 ",,,
265,2013-01-12 01:00," 1,422.7 ",,,
266,2013-01-12 02:00," 1,387.2 ",,,
267,2013-01-12 03:00," 1,348.6 ",,,
268,2013-01-12 04:00," 1,332.1 ",,,
269,2013-01-12 05:00," 1,333.1 ",,,
270,2013-01-12 06:00," 1,344.2 ",,,
271,2013-01-12 07:00," 1,397.0 ",,,
272,2013-01-12 08:00," 1,470.6 ",,,
273,2013-01-12 09:00," 1,547.2 ",,,
274,2013-01-12 10:00," 1,590.8 ",,,
275,2013-01-12 11:00," 1,581.8 ",,,
276,2013-01-12 12:00," 1,561.3 ",,,
277,2013-01-12 13:00," 1,527.8 ",,,
278,2013-01-12 14:00," 1,479.8 ",,,
279,2013-01-12 15:00," 1,446.6 ",,,
280,2013-01-12 16:00," 1,453.3 ",,,
281,2013-01-12 17:00," 1,533.4 ",,,
282,2013-01-12 18:00," 1,653.1 ",,,
283,2013-01-12 19:00," 1,640.1 ",,,
284,2013-01-12 20:00," 1,604.8 ",,,
285,2013-01-12 21:00," 1,560.6 ",,,
286,2013-01-12 22:00," 1,496.0 ",,,
287,2013-01-12 23:00," 1,423.0 ",,,
288,2013-01-13 00:00," 1,401.4 ",,,
289,2013-01-13 01:00," 1,347.7 ",,,
290,2013-01-13 02:00," 1,316.2 ",,,
291,2013-01-13 03:00," 1,288.8 ",,,
292,2013-01-13 04:00," 1,283.3 ",,,
293,2013-01-13 05:00," 1,283.8 ",,,
294,2013-01-13 06:00," 1,267.6 ",,,
295,2013-01-13 07:00," 1,302.4 ",,,
296,2013-01-13 08:00," 1,354.9 ",,,
297,2013-01-13 09:00," 1,429.3 ",,,
298,2013-01-13 10:00," 1,481.7 ",,,
299,2013-01-13 11:00," 1,497.8 ",,,
300,2013-01-13 12:00," 1,507.7 ",,,
301,2013-01-13 13:00," 1,480.7 ",,,
302,2013-01-13 14:00," 1,460.3 ",,,
303,2013-01-13 15:00," 1,439.9 ",,,
304,2013-01-13 16:00," 1,457.8 ",,,
305,2013-01-13 17:00," 1,511.2 ",,,
306,2013-01-13 18:00," 1,595.7 ",,,
307,2013-01-13 19:00," 1,544.0 ",,,
308,2013-01-13 20:00," 1,491.0 ",,,
309,2013-01-13 21:00," 1,482.7 ",,,
310,2013-01-13 22:00," 1,408.3 ",,,
311,2013-01-13 23:00," 1,338.9 ",,,
312,2013-01-14 00:00," 1,269.3 ",,,
313,2013-01-14 01:00," 1,200.5 ",,,
314,2013-01-14 02:00," 1,163.9 ",,,
315,2013-01-14 03:00," 1,155.4 ",,,
316,2013-01-14 04:00," 1,152.7 ",,,
317,2013-01-14 05:00," 1,168.6 ",,,
318,2013-01-14 06:00," 1,219.1 ",,,
319,2013-01-14 07:00," 1,302.2 ",,,
320,2013-01-14 08:00," 1,447.6 ",,,
321,2013-01-14 09:00," 1,475.1 ",,,
322,2013-01-14 10:00," 1,493.5 ",,,
323,2013-01-14 11:00," 1,503.2 ",,,
324,2013-01-14 12:00," 1,507.0 ",,,
325,2013-01-14 13:00," 1,507.1 ",,,
326,2013-01-14 14:00," 1,475.1 ",,,
327,2013-01-14 15:00," 1,446.7 ",,,
328,2013-01-14 16:00," 1,455.6 ",,,
329,2013-01-14 17:00," 1,510.3 ",,,
330,2013-01-14 18:00," 1,588.9 ",,,
331,2013-01-14 19:00," 1,555.2 ",,,
332,2013-01-14 20:00," 1,520.9 ",,,
333,2013-01-14 21:00," 1,476.4 ",,,
334,2013-01-14 22:00," 1,400.6 ",,,
335,2013-01-14 23:00," 1,309.7 ",,,
336,2013-01-15 00:00," 1,287.1 ",,,
337,2013-01-15 01:00," 1,255.3 ",,,
338,2013-01-15 02:00," 1,220.1 ",,,
339,2013-01-15 03:00," 1,189.0 ",,,
340,2013-01-15 04:00," 1,182.3 ",,,
341,2013-01-15 05:00," 1,204.5 ",,,
342,2013-01-15 06:00," 1,274.6 ",,,
343,2013-01-15 07:00," 1,439.9 ",,,
344,2013-01-15 08:00," 1,586.1 ",,,
345,2013-01-15 09:00," 1,559.6 ",,,
346,2013-01-15 10:00," 1,535.2 ",,,
347,2013-01-15 11:00," 1,500.0 ",,,
348,2013-01-15 12:00," 1,477.5 ",,,
349,2013-01-15 13:00," 1,418.8 ",,,
350,2013-01-15 14:00," 1,366.4 ",,,
351,2013-01-15 15:00," 1,342.1 ",,,
352,2013-01-15 16:00," 1,349.2 ",,,
353,2013-01-15 17:00," 1,426.0 ",,,
354,2013-01-15 18:00," 1,559.3 ",,,
355,2013-01-15 19:00," 1,563.2 ",,,
356,2013-01-15 20:00," 1,547.3 ",,,
357,2013-01-15 21:00," 1,515.5 ",,,
358,2013-01-15 22:00," 1,447.0 ",,,
359,2013-01-15 23:00," 1,346.8 ",,,
360,2013-01-16 00:00," 1,311.6 ",,,
361,2013-01-16 01:00," 1,289.7 ",,,
362,2013-01-16 02:00," 1,266.8 ",,,
363,2013-01-16 03:00," 1,255.0 ",,,
364,2013-01-16 04:00," 1,289.3 ",,,
365,2013-01-16 05:00," 1,322.2 ",,,
366,2013-01-16 06:00," 1,387.8 ",,,
367,2013-01-16 07:00," 1,529.6 ",,,
368,2013-01-16 08:00," 1,601.5 ",,,
369,2013-01-16 09:00," 1,633.4 ",,,
370,2013-01-16 10:00," 1,563.4 ",,,
371,2013-01-16 11:00," 1,555.0 ",,,
372,2013-01-16 12:00," 1,573.9 ",,,
373,2013-01-16 13:00," 1,603.7 ",,,
374,2013-01-16 14:00," 1,594.1 ",,,
375,2013-01-16 15:00," 1,597.9 ",,,
376,2013-01-16 16:00," 1,621.2 ",,,
377,2013-01-16 17:00," 1,673.2 ",,,
378,2013-01-16 18:00," 1,743.0 ",,,
379,2013-01-16 19:00," 1,711.4 ",,,
380,2013-01-16 20:00," 1,688.2 ",,,
381,2013-01-16 21:00," 1,693.2 ",,,
382,2013-01-16 22:00," 1,612.5 ",,,
383,2013-01-16 23:00," 1,491.0 ",,,
384,2013-01-17 00:00," 1,423.6 ",,,
385,2013-01-17 01:00," 1,385.9 ",,,
386,2013-01-17 02:00," 1,352.9 ",,,
387,2013-01-17 03:00," 1,366.7 ",,,
388,2013-01-17 04:00," 1,353.2 ",,,
389,2013-01-17 05:00," 1,356.2 ",,,
390,2013-01-17 06:00," 1,394.8 ",,,
391,2013-01-17 07:00," 1,535.8 ",,,
392,2013-01-17 08:00," 1,659.2 ",,,
393,2013-01-17 09:00," 1,671.0 ",,,
394,2013-01-17 10:00," 1,656.9 ",,,
395,2013-01-17 11:00," 1,636.4 ",,,
396,2013-01-17 12:00," 1,612.2 ",,,
397,2013-01-17 13:00," 1,600.8 ",,,
398,2013-01-17 14:00," 1,562.5 ",,,
399,2013-01-17 15:00," 1,506.8 ",,,
400,2013-01-17 16:00," 1,502.9 ",,,
401,2013-01-17 17:00," 1,491.8 ",,,
402,2013-01-17 18:00," 1,609.1 ",,,
403,2013-01-17 19:00," 1,612.8 ",,,
404,2013-01-17 20:00," 1,648.2 ",,,
405,2013-01-17 21:00," 1,655.3 ",,,
406,2013-01-17 22:00," 1,613.4 ",,,
407,2013-01-17 23:00," 1,524.4 ",,,
408,2013-01-18 00:00," 1,485.7 ",,,
409,2013-01-18 01:00," 1,469.2 ",,,
410,2013-01-18 02:00," 1,440.4 ",,,
411,2013-01-18 03:00," 1,424.2 ",,,
412,2013-01-18 04:00," 1,430.8 ",,,
413,2013-01-18 05:00," 1,453.2 ",,,
414,2013-01-18 06:00," 1,525.3 ",,,
415,2013-01-18 07:00," 1,645.2 ",,,
416,2013-01-18 08:00," 1,716.5 ",,,
417,2013-01-18 09:00," 1,766.3 ",,,
418,2013-01-18 10:00," 1,786.2 ",,,
419,2013-01-18 11:00," 1,793.5 ",,,
420,2013-01-18 12:00," 1,771.3 ",,,
421,2013-01-18 13:00," 1,771.0 ",,,
422,2013-01-18 14:00," 1,717.6 ",,,
423,2013-01-18 15:00," 1,680.8 ",,,
424,2013-01-18 16:00," 1,682.9 ",,,
425,2013-01-18 17:00," 1,733.2 ",,,
426,2013-01-18 18:00," 1,852.6 ",,,
427,2013-01-18 19:00," 1,863.9 ",,,
428,2013-01-18 20:00," 1,845.1 ",,,
429,2013-01-18 21:00," 1,801.3 ",,,
430,2013-01-18 22:00," 1,757.8 ",,,
431,2013-01-18 23:00," 1,746.5 ",,,
432,2013-01-19 00:00," 1,722.8 ",,,
433,2013-01-19 01:00," 1,698.9 ",,,
434,2013-01-19 02:00," 1,655.8 ",,,
435,2013-01-19 03:00," 1,571.4 ",,,
436,2013-01-19 04:00," 1,561.4 ",,,
437,2013-01-19 05:00," 1,540.3 ",,,
438,2013-01-19 06:00," 1,576.9 ",,,
439,2013-01-19 07:00," 1,617.4 ",,,
440,2013-01-19 08:00," 1,676.4 ",,,
441,2013-01-19 09:00," 1,744.4 ",,,
442,2013-01-19 10:00," 1,790.2 ",,,
443,2013-01-19 11:00," 1,796.7 ",,,
444,2013-01-19 12:00," 1,776.3 ",,,
445,2013-01-19 13:00," 1,723.6 ",,,
446,2013-01-19 14:00," 1,690.7 ",,,
447,2013-01-19 15:00," 1,667.8 ",,,
448,2013-01-19 16:00," 1,661.8 ",,,
449,2013-01-19 17:00," 1,706.7 ",,,
450,2013-01-19 18:00," 1,763.5 ",,,
451,2013-01-19 19:00," 1,707.5 ",,,
452,2013-01-19 20:00," 1,651.4 ",,,
453,2013-01-19 21:00," 1,627.3 ",,,
454,2013-01-19 22:00," 1,544.9 ",,,
455,2013-01-19 23:00," 1,442.9 ",,,
456,2013-01-20 00:00," 1,410.7 ",,,
457,2013-01-20 01:00," 1,363.2 ",,,
458,2013-01-20 02:00," 1,321.1 ",,,
459,2013-01-20 03:00," 1,300.1 ",,,
460,2013-01-20 04:00," 1,293.7 ",,,
461,2013-01-20 05:00," 1,302.3 ",,,
462,2013-01-20 06:00," 1,328.3 ",,,
463,2013-01-20 07:00," 1,370.3 ",,,
464,2013-01-20 08:00," 1,421.2 ",,,
465,2013-01-20 09:00," 1,476.4 ",,,
466,2013-01-20 10:00," 1,517.7 ",,,
467,2013-01-20 11:00," 1,558.0 ",,,
468,2013-01-20 12:00," 1,570.9 ",,,
469,2013-01-20 13:00," 1,542.3 ",,,
470,2013-01-20 14:00," 1,480.8 ",,,
471,2013-01-20 15:00," 1,441.2 ",,,
472,2013-01-20 16:00," 1,444.0 ",,,
473,2013-01-20 17:00," 1,530.3 ",,,
474,2013-01-20 18:00," 1,637.2 ",,,
475,2013-01-20 19:00," 1,622.9 ",,,
476,2013-01-20 20:00," 1,587.7 ",,,
477,2013-01-20 21:00," 1,539.4 ",,,
478,2013-01-20 22:00," 1,460.4 ",,,
479,2013-01-20 23:00," 1,339.7 ",,,
480,2013-01-21 00:00," 1,251.8 ",,,
481,2013-01-21 01:00," 1,192.5 ",,,
482,2013-01-21 02:00," 1,200.4 ",,,
483,2013-01-21 03:00," 1,221.3 ",,,
484,2013-01-21 04:00," 1,215.5 ",,,
485,2013-01-21 05:00," 1,251.1 ",,,
486,2013-01-21 06:00," 1,342.8 ",,,
487,2013-01-21 07:00," 1,525.0 ",,,
488,2013-01-21 08:00," 1,683.0 ",,,
489,2013-01-21 09:00," 1,719.5 ",,,
490,2013-01-21 10:00," 1,711.4 ",,,
491,2013-01-21 11:00," 1,742.8 ",,,
492,2013-01-21 12:00," 1,712.6 ",,,
493,2013-01-21 13:00," 1,687.4 ",,,
494,2013-01-21 14:00," 1,661.0 ",,,
495,2013-01-21 15:00," 1,640.6 ",,,
496,2013-01-21 16:00," 1,692.2 ",,,
497,2013-01-21 17:00," 1,704.9 ",,,
498,2013-01-21 18:00," 1,824.7 ",,,
499,2013-01-21 19:00," 1,781.4 ",,,
500,2013-01-21 20:00," 1,765.3 ",,,
501,2013-01-21 21:00," 1,769.3 ",,,
502,2013-01-21 22:00," 1,712.6 ",,,
503,2013-01-21 23:00," 1,596.7 ",,,
504,2013-01-22 00:00," 1,543.7 ",,,
505,2013-01-22 01:00," 1,509.9 ",,,
506,2013-01-22 02:00," 1,492.7 ",,,
507,2013-01-22 03:00," 1,468.4 ",,,
508,2013-01-22 04:00," 1,460.4 ",,,
509,2013-01-22 05:00," 1,477.2 ",,,
510,2013-01-22 06:00," 1,499.8 ",,,
511,2013-01-22 07:00," 1,626.3 ",,,
512,2013-01-22 08:00," 1,712.1 ",,,
513,2013-01-22 09:00," 1,756.6 ",,,
514,2013-01-22 10:00," 1,786.1 ",,,
515,2013-01-22 11:00," 1,797.5 ",,,
516,2013-01-22 12:00," 1,846.0 ",,,
517,2013-01-22 13:00," 1,878.2 ",,,
518,2013-01-22 14:00," 1,840.6 ",,,
519,2013-01-22 15:00," 1,809.4 ",,,
520,2013-01-22 16:00," 1,818.5 ",,,
521,2013-01-22 17:00," 1,860.1 ",,,
522,2013-01-22 18:00," 1,930.5 ",,,
523,2013-01-22 19:00," 1,893.2 ",,,
524,2013-01-22 20:00," 1,857.3 ",,,
525,2013-01-22 21:00," 1,832.6 ",,,
526,2013-01-22 22:00," 1,755.5 ",,,
527,2013-01-22 23:00," 1,648.0 ",,,
528,2013-01-23 00:00," 1,607.9 ",,,
529,2013-01-23 01:00," 1,621.8 ",,,
530,2013-01-23 02:00," 1,621.5 ",,,
531,2013-01-23 03:00," 1,608.6 ",,,
532,2013-01-23 04:00," 1,605.9 ",,,
533,2013-01-23 05:00," 1,621.5 ",,,
534,2013-01-23 06:00," 1,648.5 ",,,
535,2013-01-23 07:00," 1,789.5 ",,,
536,2013-01-23 08:00," 1,890.4 ",,,
537,2013-01-23 09:00," 1,894.1 ",,,
538,2013-01-23 10:00," 1,846.8 ",,,
539,2013-01-23 11:00," 1,809.3 ",,,
540,2013-01-23 12:00," 1,809.0 ",,,
541,2013-01-23 13:00," 1,828.8 ",,,
542,2013-01-23 14:00," 1,797.9 ",,,
543,2013-01-23 15:00," 1,777.4 ",,,
544,2013-01-23 16:00," 1,804.7 ",,,
545,2013-01-23 17:00," 1,876.5 ",,,
546,2013-01-23 18:00," 1,994.1 ",,,
547,2013-01-23 19:00," 1,994.7 ",,,
548,2013-01-23 20:00," 1,974.0 ",,,
549,2013-01-23 21:00," 1,947.3 ",,,
550,2013-01-23 22:00," 1,895.7 ",,,
551,2013-01-23 23:00," 1,852.9 ",,,
552,2013-01-24 00:00," 1,811.2 ",,,
553,2013-01-24 01:00," 1,778.9 ",,,
554,2013-01-24 02:00," 1,754.8 ",,,
555,2013-01-24 03:00," 1,746.1 ",,,
556,2013-01-24 04:00," 1,745.2 ",,,
557,2013-01-24 05:00," 1,757.8 ",,,
558,2013-01-24 06:00," 1,821.4 ",,,
559,2013-01-24 07:00," 1,955.0 ",,,
560,2013-01-24 08:00," 1,996.9 ",,,
561,2013-01-24 09:00," 2,004.9 ",,,
562,2013-01-24 10:00," 1,968.6 ",,,
563,2013-01-24 11:00," 1,938.9 ",,,
564,2013-01-24 12:00," 1,917.7 ",,,
565,2013-01-24 13:00," 1,930.0 ",,,
566,2013-01-24 14:00," 1,887.3 ",,,
567,2013-01-24 15:00," 1,844.3 ",,,
568,2013-01-24 16:00," 1,858.1 ",,,
569,2013-01-24 17:00," 1,917.1 ",,,
570,2013-01-24 18:00," 2,023.8 ",,,
571,2013-01-24 19:00," 2,039.3 ",,,
572,2013-01-24 20:00," 2,011.5 ",,,
573,2013-01-24 21:00," 1,968.5 ",,,
574,2013-01-24 22:00," 1,894.3 ",,,
575,2013-01-24 23:00," 1,791.2 ",,,
576,2013-01-25 00:00," 1,777.3 ",,,
577,2013-01-25 01:00," 1,777.0 ",,,
578,2013-01-25 02:00," 1,746.4 ",,,
579,2013-01-25 03:00," 1,775.7 ",,,
580,2013-01-25 04:00," 1,789.6 ",,,
581,2013-01-25 05:00," 1,823.2 ",,,
582,2013-01-25 06:00," 1,880.2 ",,,
583,2013-01-25 07:00," 1,904.7 ",,,
584,2013-01-25 08:00," 1,996.9 ",,,
585,2013-01-25 09:00," 2,030.1 ",,,
586,2013-01-25 10:00," 1,994.5 ",,,
587,2013-01-25 11:00," 1,949.7 ",,,
588,2013-01-25 12:00," 1,927.5 ",,,
589,2013-01-25 13:00," 1,913.3 ",,,
590,2013-01-25 14:00," 1,900.3 ",,,
591,2013-01-25 15:00," 1,850.9 ",,,
592,2013-01-25 16:00," 1,802.6 ",,,
593,2013-01-25 17:00," 1,800.2 ",,,
594,2013-01-25 18:00," 1,901.4 ",,,
595,2013-01-25 19:00," 1,903.3 ",,,
596,2013-01-25 20:00," 1,906.4 ",,,
597,2013-01-25 21:00," 1,883.4 ",,,
598,2013-01-25 22:00," 1,819.8 ",,,
599,2013-01-25 23:00," 1,738.1 ",,,
600,2013-01-26 00:00," 1,705.3 ",,,
601,2013-01-26 01:00," 1,678.4 ",,,
602,2013-01-26 02:00," 1,650.5 ",,,
603,2013-01-26 03:00," 1,624.8 ",,,
604,2013-01-26 04:00," 1,614.7 ",,,
605,2013-01-26 05:00," 1,613.1 ",,,
606,2013-01-26 06:00," 1,565.5 ",,,
607,2013-01-26 07:00," 1,597.9 ",,,
608,2013-01-26 08:00," 1,667.1 ",,,
609,2013-01-26 09:00," 1,748.0 ",,,
610,2013-01-26 10:00," 1,762.0 ",,,
611,2013-01-26 11:00," 1,732.1 ",,,
612,2013-01-26 12:00," 1,696.7 ",,,
613,2013-01-26 13:00," 1,657.3 ",,,
614,2013-01-26 14:00," 1,583.0 ",,,
615,2013-01-26 15:00," 1,536.8 ",,,
616,2013-01-26 16:00," 1,542.4 ",,,
617,2013-01-26 17:00," 1,622.2 ",,,
618,2013-01-26 18:00," 1,765.6 ",,,
619,2013-01-26 19:00," 1,786.2 ",,,
620,2013-01-26 20:00," 1,749.2 ",,,
621,2013-01-26 21:00," 1,712.5 ",,,
622,2013-01-26 22:00," 1,675.0 ",,,
623,2013-01-26 23:00," 1,633.0 ",,,
624,2013-01-27 00:00," 1,660.2 ",,,
625,2013-01-27 01:00," 1,622.4 ",,,
626,2013-01-27 02:00," 1,607.7 ",,,
627,2013-01-27 03:00," 1,592.6 ",,,
628,2013-01-27 04:00," 1,525.4 ",,,
629,2013-01-27 05:00," 1,538.4 ",,,
630,2013-01-27 06:00," 1,578.7 ",,,
631,2013-01-27 07:00," 1,647.5 ",,,
632,2013-01-27 08:00," 1,712.4 ",,,
633,2013-01-27 09:00," 1,804.9 ",,,
634,2013-01-27 10:00," 1,868.9 ",,,
635,2013-01-27 11:00," 1,907.4 ",,,
636,2013-01-27 12:00," 1,892.2 ",,,
637,2013-01-27 13:00," 1,817.4 ",,,
638,2013-01-27 14:00," 1,768.7 ",,,
639,2013-01-27 15:00," 1,705.0 ",,,
640,2013-01-27 16:00," 1,660.3 ",,,
641,2013-01-27 17:00," 1,729.7 ",,,
642,2013-01-27 18:00," 1,836.4 ",,,
643,2013-01-27 19:00," 1,911.5 ",,,
644,2013-01-27 20:00," 1,857.1 ",,,
645,2013-01-27 21:00," 1,838.1 ",,,
646,2013-01-27 22:00," 1,797.9 ",,,
647,2013-01-27 23:00," 1,691.3 ",,,
648,2013-01-28 00:00," 1,600.5 ",,,
649,2013-01-28 01:00," 1,543.5 ",,,